{"data":{"norad_id":56540,"intl_designator":"2023-065AP","name":"STARLINK-6136","alt_names":[],"object_type":"PAYLOAD","status":"ACTIVE","operator":null,"country":"US","launch_date":"2023-05-14","launch_site_code":"AFETR","launch_vehicle":null,"mission":null,"orbit_class":"UNKNOWN","rcs_meters":null,"size_class":null,"mass_kg":null,"dimensions":null,"purposes":["comms"],"wikipedia_slug":null,"has_3d_model":false,"image_url":null,"decayed_at":null,"tle_current":{"epoch":"2026-05-25T01:39:48.047040Z","epoch_age_seconds":68396,"freshness":"FRESH","line1":"1 56540U 23065AP  26145.06930610 -.00000861  00000+0 -21774-4 0  9990","line2":"2 56540  43.0024 155.6281 0001066 299.3291  60.7455 15.27585687168119","mean_motion":15.27585687,"eccentricity":0.0001066,"inclination_deg":43.0024,"raan_deg":155.6281,"arg_perigee_deg":299.3291,"mean_anomaly_deg":60.7455,"bstar":-2.1774e-5,"rev_number":16811,"period_min":94.266397770981,"perigee_km":482.30066654604,"apogee_km":483.76346779116,"semimajor_km":6861.1690671686,"source":"CELESTRAK","updated_at":"2026-05-25T13:38:18.114325Z"}}}